Regional Weather Roundup
Issued by NWS

Home | Current Version | Previous Version | Text Only | Print | Product List | Glossary Off
Versions: 1 2 3 4 5 6 7 8 9 10 11 12 13 14 15 16 17 18 19 20 21 22 23 24 25 26 27 28 29 30 31 32 33 34 35 36 37 38 39 40 41 42 43 44 45 46 47 48 49 50

000
ASUS43 KMKX 301021
RWRWI

WISCONSIN REGIONAL WEATHER ROUNDUP
NATIONAL WEATHER SERVICE MILWAUKEE/SULLIVAN WI
500 AM CDT TUE SEP 30 2014

NOTE: "FAIR" INDICATES FEW OR NO CLOUDS BELOW 12,000 FEET WITH NO
SIGNIFICANT WEATHER AND/OR OBSTRUCTIONS TO VISIBILITY.

WIZ001-002-006>008-014>016-023>028-301100-
NORTHWEST WISCONSIN

CITY           SKY/WX    TMP DP  RH WIND       PRES   REMARKS
SUPERIOR ARPT  CLOUDY    43  40  88 SE6       30.15F
ASHLAND        CLOUDY    42  38  85 CALM      30.17S
HAYWARD        CLOUDY    41  38  89 NE5       30.14F
SIREN          CLOUDY    42  39  90 E3        30.13S
CUMBERLAND     CLOUDY    39  36  87 E7        30.12F WCI  34
RICE LAKE      CLOUDY    40  37  86 NE6       30.14S
CHETEK         CLOUDY    41  38  87 NE6       30.13S
LADYSMITH      CLOUDY    40  37  87 E5        30.15F
EAU CLAIRE     CLOUDY    43  37  79 E8        30.12S
MENOMONIE      CLOUDY    43  38  83 E9        30.13S
NEW RICHMOND   CLOUDY    40  38  91 E8        30.13R
OSCEOLA        CLOUDY    42  41  95 E8        30.15F
$$

WIZ003>005-009-010-017-018-301100-
NORTH CENTRAL WISCONSIN

CITY           SKY/WX    TMP DP  RH WIND       PRES   REMARKS
MANITOWISH WTR CLOUDY    37  36  99 CALM      30.13R
ARBOR VITAE    CLOUDY    39  37  91 N5        30.12R
WOODRUFF       CLOUDY    39  37  91 N5        30.12R
RHINELANDER    CLOUDY    38  36  92 NE3       30.12F
EAGLE RIVER    CLOUDY    38  37  99 NE6       30.11S WCI  33
LAND O LAKES   CLOUDY    38  37  99 NE5       30.13R WCI  34
PHILLIPS       CLOUDY    37  36  94 NE3       30.13S
TOMAHAWK       CLOUDY    38  35  90 CALM      30.13S
MEDFORD        CLOUDY    37  35  91 NE8       30.12F WCI  31
MERRILL        CLOUDY    39  38  94 CALM      30.12S
$$

WIZ029-030-035-036-043>047-301100-
CENTRAL WISCONSIN

CITY           SKY/WX    TMP DP  RH WIND       PRES   REMARKS
WAUSAU         CLOUDY    40  36  86 VRB3      30.12S
MOSINEE        CLOUDY    37  37 100 N5        30.14S WCI  34
MARSHFIELD     CLOUDY    41  36  82 NE9       30.12S
STEVENS POINT  CLOUDY    38  35  88 NE6       30.13S WCI  34
WAUPACA        CLOUDY    43  40  87 N5        30.13S
WAUTOMA        NOT AVBL
WISC RAPIDS    CLOUDY    41  36  82 E9        30.13F
CAMP DOUGLAS   CLOUDY    42  42 100 E8        30.12S
$$

WIZ011>013-019>022-031-037>040-048>050-301100-
NORTHEAST WISCONSIN

CITY           SKY/WX    TMP DP  RH WIND       PRES   REMARKS
ANTIGO         CLOUDY    38  37  95 NE8       30.11S WCI  33
SHAWANO        CLOUDY    44  38  79 N8        30.13R
OCONTO         CLOUDY    42  41  97 N8        30.11R
STURGEON BAY   NOT AVBL
GREEN BAY      CLOUDY    43  39  86 N10       30.11R
MANITOWOC      NOT AVBL
APPLETON       CLOUDY    41  37  87 NE7       30.11S
CLINTONVILLE   CLOUDY    43  36  75 N3        30.12S
OSHKOSH        CLOUDY    44  39  82 N12       30.11R
$$

WIZ032>034-041-042-053>061-301100-
SOUTHWEST WISCONSIN

CITY           SKY/WX    TMP DP  RH WIND       PRES   REMARKS
LA CROSSE      CLOUDY    48  42  80 NE7       30.10F
SPARTA         CLOUDY    44  40  88 E7        30.12S
VIROQUA        CLOUDY    45  45 100 E6        30.09S
BOSCOBEL       CLOUDY    51  46  83 E7        30.09S
PRAIRIE DU CHI CLOUDY    51  44  79 NE5       30.07S
PLATTEVILLE    CLOUDY    48  46  92 NE10      30.08S
$$

WIZ056-057-062-063-064-067-068-301100-
SOUTH CENTRAL WISCONSIN

CITY           SKY/WX    TMP DP  RH WIND       PRES   REMARKS
REEDSBURG      CLOUDY    44  40  87 NE5       30.10S
BARABOO/DELLS  CLOUDY    43  40  88 NE5       30.10S
LONE ROCK      CLOUDY    50  42  74 E7        30.10S
MINERAL POINT  CLOUDY    46  45  93 NE6       30.08S
MADISON        CLOUDY    45  40  82 NE9       30.09S
MIDDLETON      CLOUDY    46  42  84 NE6       30.09S
WATERTOWN      CLOUDY    43  41  93 NE8       30.09S
MONROE         CLOUDY    45  45 100 NE8       30.07S
JANESVILLE     CLOUDY    48  43  81 NE10      30.07S
$$

WIZ051-052-058>065-066-070>072-301100-
SOUTHEAST WISCONSIN

CITY           SKY/WX    TMP DP  RH WIND       PRES   REMARKS
MILWAUKEE      CLOUDY    45  40  82 N10G18    30.07F
WAUKESHA       CLOUDY    41  37  87 N7        30.10S
MILWAUKEE/TIMM CLOUDY    43  37  81 N10G16    30.09S
RACINE         LGT RAIN  46  43  89 N8        30.08S
BURLINGTON     CLOUDY    43  38  83 N9        30.08S
KENOSHA        CLOUDY    46  42  86 N10       30.07S
FOND DU LAC    CLOUDY    45  39  79 NE12      30.10F
SHEBOYGAN      CLOUDY    44  39  82 N8        30.09R
WEST BEND      CLOUDY    43  36  75 N5        30.08F
JUNEAU         CLOUDY    42  39  88 N8        30.11R
$$

LSZ147-162-301100-
LAKE SUPERIOR

STATION/POSITION TIME  TEMP    WIND        PRES    WAVE
                       AIR SEA DIR/SP/G            HT/PER
                 (UTC) (F)     (DEG/KT/KT) (MB)    (FT/S)
W MID LAKE BUOY  0950   44 49   80/ 12/ 14 1021.9S   3/ 6
DEVILS ISLAND    1000   45      80/ 13/ 14 1022.3R
SAXON HARBOR     0900   44      80/  2/  5 1021.0F
$$

LMZ867-665-643>646-301100-
LAKE MICHIGAN

STATION/POSITION TIME  TEMP    WIND        PRES    WAVE
                       AIR SEA DIR/SP/G            HT/PER
                 (UTC) (F)     (DEG/KT/KT) (MB)    (FT/S)
CHAMBERS ISLAND  0900   45     340/ 17/ 21 1019.0S
S GREEN BAY BUOY 1000   46                 1020.1R
N MID LAKE BUOY  0950   46 58  360/ 19/ 23 1017.9R   4/ 5
NORTHPORT PIER   0900   46     340/ 19/ 23 1018.6F
KEWAUNEE LAKESHO 0900   45     350/  6/  9 1017.6F
SHEBOYGAN LAKESH 1000   45 54  330/ 14/ 16 1019.3R
PORT WASHINGTON  0940          330/  7/ 12 1019.3S
ATWATER BUOY     1000   48     340/ 16/ 19 1019.2F
MILWAUKEE LAKESH 1000          340/  9/ 13   N/A
S MID LAKE BUOY  0950   52 61  350/ 17/ 23 1016.8S   7/ 8
KENOSHA   LAKESH 1000          320/ 12/ 16 1017.6F
$$

TC  - TEMPERATURE IN CELSIUS
VSB - VISIBILITY IN STATUTE MILES
WCI - WIND CHILL INDEX
HX  - HEAT INDEX



USA.gov is the U.S. government's official web portal to all federal, state and local government web resources and services.